{"data":{"norad_id":66427,"intl_designator":"2025-259F","name":"STARLINK-35611","alt_names":[],"object_type":"PAYLOAD","status":"ACTIVE","operator":null,"country":"US","launch_date":"2025-11-11","launch_site_code":"AFETR","launch_vehicle":null,"mission":null,"orbit_class":"UNKNOWN","rcs_meters":null,"size_class":null,"mass_kg":null,"dimensions":null,"purposes":["comms"],"wikipedia_slug":null,"has_3d_model":false,"image_url":null,"decayed_at":null,"tle_current":{"epoch":"2026-05-25T04:54:24.312384Z","epoch_age_seconds":60950,"freshness":"FRESH","line1":"1 66427U 25259F   26145.20444806  .00011563  00000+0  42887-3 0  9991","line2":"2 66427  43.0009 202.1969 0000522 294.2946  65.7851 15.27592958 31196","mean_motion":15.27592958,"eccentricity":5.22e-5,"inclination_deg":43.0009,"raan_deg":202.1969,"arg_perigee_deg":294.2946,"mean_anomaly_deg":65.7851,"bstar":0.00042887,"rev_number":3119,"period_min":94.265949084062,"perigee_km":482.6521435115,"apogee_km":483.36844728914,"semimajor_km":6861.1472954003,"source":"CELESTRAK","updated_at":"2026-05-25T13:38:21.207701Z"}}}